Regional Weather Roundup
Issued by NWS

Home | Current Version | Previous Version | Graphics & Text | Print | Product List | Glossary On
Versions: 1 2 3 4 5 6 7 8 9 10 11 12 13 14 15 16 17 18 19 20 21 22 23 24 25 26 27 28 29 30 31 32 33 34 35 36 37 38 39 40 41 42 43 44 45 46 47 48 49 50
000
ASUS43 KMPX 261510
RWRMN
WEATHER ROUNDUP FOR MINNESOTA
NATIONAL WEATHER SERVICE TWIN CITIES/CHANHASSEN MN
1000 AM CDT TUE JUL 26 2016


NOTE: "FAIR" INDICATES FEW OR NO CLOUDS BELOW 12,000 FEET WITH NO
SIGNIFICANT WEATHER AND/OR OBSTRUCTIONS TO VISIBILITY. N/A MEANS
CURRENT SKY AND/OR WEATHER CONDITIONS ARE NOT AVAILABLE.

MNZ060>063-068>070-261600-
   Twin Cities Metro

CITY           SKY/WX    TMP DP  RH WIND       PRES   REMARKS
TWIN CITIES    MOSUNNY   82  66  58 W10       30.05S
ST PAUL        MOSUNNY   81  67  62 SW5       30.05S
CRYSTAL        SUNNY     81  65  58 W9        30.04S
BLAINE         MOSUNNY   82  66  57 SW7       30.04S
LAKEVILLE      SUNNY     79  66  65 SW7       30.07R
EDEN PRAIRIE   MOSUNNY   81  68  64 SW9       30.05R
LAKEVILLE      SUNNY     79  66  65 SW7       30.07R
SOUTH ST PAUL  MOSUNNY   81  65  58 W8        30.06R
LAKE ELMO      FAIR      81  70  69 W9        30.07S
$$
MNZ001>005-007-008-013>017-022>024-027-028-261600-
   Northwest Minnesota

CITY           SKY/WX    TMP DP  RH WIND       PRES   REMARKS
BEMIDJI        CLOUDY    73  64  73 W6        29.98S
HALLOCK        SUNNY     75  68  78 CALM      29.98S
ROSEAU         SUNNY     75  68  78 CALM      29.99R
WARROAD        SUNNY     73  68  83 NE6       29.99S
THIEF RVR FALL CLOUDY    75  68  78 CALM      29.99S
CROOKSTON      CLOUDY    73  68  83 N5        29.97S
FOSSTON        CLOUDY    73  70  88 CALM      29.98S
DETROIT LAKES  CLOUDY    72  63  73 SW5       29.98R
MOORHEAD       CLOUDY    72  64  78 S7        29.95F
PARK RAPIDS    CLOUDY    71  64  78 CALM      29.99F
MAHNOMEN       FAIR      71  64  80 CALM      29.96F
$$
MNZ006-009>011-018-025>026-261600-
   North Central Minnesota

CITY           SKY/WX    TMP DP  RH WIND       PRES   REMARKS
BAUDETTE       SUNNY     78  65  63 CALM      29.98S
FLAG ISLAND    SUNNY     75  57  53 E8        29.98S
INTL FALLS     SUNNY     77  64  64 CALM      29.98S
WASKISH        CLOUDY    77  68  73 E5        29.98S
BIG FORK       CLOUDY    75  66  73 SW5       29.98S
LONGVILLE      CLOUDY    68  66  94 CALM      29.98F FOG
GRAND RAPIDS   CLOUDY    75  65  70 W7        30.00F
CRANE LAKE     MOSUNNY   72  68  88 W2        29.99F
ORR            CLOUDY    73  64  73 CALM      29.96S
COOK           CLOUDY    75  66  73 SW7       29.98S
WALKER         FAIR      71  65  81 CALM      29.99S
$$
MNZ012-019>021-037-261600-
   Northeast Minnesota

CITY           SKY/WX    TMP DP  RH WIND       PRES   REMARKS
DULUTH         MOSUNNY   77  66  68 W12       29.99S
ELY            MOSUNNY   73  64  73 CALM      29.98S
HIBBING        CLOUDY    75  66  73 W8        29.98F
EVELETH        CLOUDY    78  67  68 W9        29.99F
DULUTH HARBOR  SUNNY     81  70  69 SW9       29.97S
TWO HARBORS    SUNNY     82  72  69 W10       29.96S
SILVER BAY     CLOUDY    81  66  61 SW7       29.94F
GRAND MARAIS     N/A     66  61  84 CALM      29.94F
G MARAIS ARPRT CLOUDY    72  63  73 CALM      30.00F
$$
MNZ029>031-032-039>041-046>048-054>057-064-261600-
   West Central Minnesota

CITY           SKY/WX    TMP DP  RH WIND       PRES   REMARKS
FERGUS FALLS   PTSUNNY   75  66  73 S7        29.98F
WHEATON        CLOUDY    79  70  73 S5        30.00S
MORRIS         CLOUDY    81  66  61 SW10      29.99F
ALEXANDRIA     CLOUDY    75  64  68 SW8       30.03S
ELBOW LAKE     FAIR      74  67  78 S5        30.01S
WADENA         CLOUDY    73  66  78 SW9       29.98F
GLENWOOD       MOSUNNY   75  64  69 SW16      30.03S
APPLETON       SUNNY     81  64  57 SW8       30.01S
BENSON         SUNNY     77  63  61 W8        30.02F
ORTONVILLE     SUNNY     81  64  57 SW5       30.01S
MADISON        SUNNY     75  63  64 SW9       30.03S
WILLMAR        FAIR      77  68  73 SW5       30.05F
$$
MNZ033>034-036-042>043-049>051-058-059-261600-
   Central Minnesota

CITY           SKY/WX    TMP DP  RH WIND       PRES   REMARKS
ST CLOUD       SUNNY     79  68  69 SW12      30.02F
SAUK CENTRE    FAIR      76  66  70 SW8       30.03S
PAYNESVILLE    PTSUNNY   78  66  65 SW9       30.04F
AITKIN         CLOUDY    73  64  73 CALM      29.99F
PINE RIVER     CLOUDY    70  64  83 CALM      30.02F
BRAINERD       CLOUDY    72  65  78 CALM      30.01R
STAPLES        CLOUDY    75  64  69 SW5       29.99F
LONG PRAIRIE   FAIR      72  64  78 S9        30.02S
LITTLE FALLS   CLOUDY    73  63  68 S7        30.01F
LITCHFIELD     SUNNY     79  70  73 W6        30.06F
BUFFALO        SUNNY     78  66  67 SW7       30.06S
MAPLE LAKE     SUNNY     80  69  70 SW6       30.05F
HUTCHINSON     SUNNY     79  70  74 W7        30.07S
$$
MNZ037-044-045-052-053-261600-
   East Central Minnesota

CITY           SKY/WX    TMP DP  RH WIND       PRES   REMARKS
PRINCETON      SUNNY     81  68  65 SW7       30.03S
MORA           CLOUDY    75  64  69 W8        30.04R
CAMBRIDGE      MOSUNNY   81  66  61 SW6       30.02S
RUSH CITY      MOSUNNY   79  67  67 SW8       30.03S
MOOSE LAKE     CLOUDY    77  64  65 W7        29.99S
HINCKLEY       FAIR      79  68  69 W13G21    30.01F
CLOQUET        MOSUNNY   75  63  64 W10G16    30.00R
MCGREGOR       CLOUDY    73  64  73 SW5       30.01F
$$
MNZ071>073-080-081-089-090-097-098-261600-
   Southwest Minnesota

CITY           SKY/WX    TMP DP  RH WIND       PRES   REMARKS
MONTEVIDEO     MOSUNNY   81  66  61 SW3       30.05F
GRANITE FALLS  SUNNY     79  68  69 CALM      30.06S
CANBY          SUNNY     81  64  57 W5        30.05R
MARSHALL       SUNNY     80  65  59 NW10      30.05R
REDWOOD FALLS  SUNNY     81  65  58 SW7       30.04R
OLIVIA         SUNNY     77  66  69 W7        30.05S
PIPESTONE      SUNNY     77  66  69 SW10      30.09R
WINDOM         SUNNY     79  66  65 SW9       30.07S
WORTHINGTON    SUNNY     78  66  66 SW13      30.09R
JACKSON        SUNNY     79  64  61 SW8       30.09S
TRACY          SUNNY     80  68  66 SW15G21   30.04S
SLAYTON        SUNNY     77  66  68 SW10G18   30.08S
$$
MNZ065>067-074>077-082>085-091>093-261600-
   South Central Minnesota

CITY           SKY/WX    TMP DP  RH WIND       PRES   REMARKS
MANKATO        SUNNY     79  66  65 SW7       30.06F
NEW ULM        SUNNY     79  68  69 SW8       30.05F
ST JAMES       SUNNY     75  63  64 CALM      30.07S
FAIRMONT       SUNNY     79  63  57 S6        30.07S
GLENCOE        MOSUNNY   78  71  78 SW5       30.06S
FARIBAULT      SUNNY     81  70  69 S6        30.08S
OWATONNA       SUNNY     79  66  65 SW6       30.09S
WASECA         SUNNY     77  68  73 SW6       30.09S
ALBERT LEA     SUNNY     79  66  65 SW6       30.10S
$$
MNZ078>079-086>088-094>096-261600-
   Southeast Minnesota

CITY           SKY/WX    TMP DP  RH WIND       PRES   REMARKS
ROCHESTER      SUNNY     79  68  69 SW8       30.11S
RED WING       MOSUNNY   82  66  57 SW3       30.05S
STANTON        PTSUNNY   79  68  69 SW6       30.06S
DODGE CENTER   SUNNY     79  66  65 SW7       30.10S
WINONA         SUNNY     79  68  69 E3        30.07F
AUSTIN         SUNNY     77  66  69 SW6       30.10S
PRESTON        SUNNY     78  65  64 W5        30.12S
$$
ABBREVIATIONS USED IN REMARKS
   TC - TEMPERATURES IN CELSIUS
  WCI - WIND CHILL INDEX
   HX - HEAT INDEX
  VSB - VISIBILITY
$$




USA.gov is the U.S. government's official web portal to all federal, state and local government web resources and services.